Retour au catalogue

STARLINK-11615

ActifCommunicationsVLEO
NORAD 63274·PAYLOAD·🇺🇸 United States

Lancé Mar 15, 2025 depuis Cape Canaveral Space Force Station

Loading…

Prochains Passages (prochaines 24 heures)

TLE

FraisSource: CelesTrak SupGP

Époque: Sep 15, 2026, 02:34 UTC

1 63274C 25053K   26258.10743056 -.00100510  00000+0 -78038-3 0  2581
2 63274  43.0012  50.5924 0001857 268.0916 276.4035 15.70897026    15

Suivez STARLINK-11615 en temps réel avec AllMySat

Download on the App Store